This demonstration page uses our WeatherBlox Daily Observations layout. Learn more.

Left ArrowRight Arrow

Hourly Observations for December 3, 2022

Temp ( °F °C ) Dew Point ( °F °C ) Humidity (%) Winds ( mph kmh ) Pressure ( in mb ) Visibility ( mi km ) Precip ( " mm )
12:53 am 00:53 Clear 15 -9.4 6 -14.4 67 67 NNW 12 19 30.43 1031 10 16 0.00 0.00
1:53 am 01:53 Clear 13 -10.6 5 -15 70 70 NNW 9 15 30.45 1031 10 16 0.00 0.00
2:53 am 02:53 Clear 10 -12.2 3 -16.1 73 73 W 6 9 30.53 1034 10 16 0.00 0.00
3:53 am 03:53 Clear 9 -12.8 3 -16.1 76 76 WSW 5 7 30.56 1035 10 16 0.00 0.00
4:53 am 04:53 Clear 6 -14.4 1 -17.2 79 79 WSW 3 6 30.57 1035 10 16 0.00 0.00
5:53 am 05:53 Clear 6 -14.4 1 -17.2 79 79 W 5 7 30.60 1036 10 16 0.00 0.00
6:53 am 06:53 Clear 7 -13.9 2 -16.7 79 79 WSW 8 13 30.61 1037 10 16 0.00 0.00
7:53 am 07:53 Sunny 9 -12.8 3 -16.1 76 76 W 8 13 30.63 1037 10 16 0.00 0.00
8:53 am 08:53 Sunny 15 -9.4 7 -13.9 70 70 Calm 30.63 1037 10 16 0.00 0.00
9:53 am 09:53 Sunny 23 -5 13 -10.6 65 65 WSW 7 11 30.60 1036 10 16 0.00 0.00
10:53 am 10:53 Sunny 28 -2.2 15 -9.4 58 58 SW 6 9 30.59 1036 10 16 0.00 0.00
11:53 am 11:53 Sunny 35 1.7 16 -8.9 45 45 SSW 8 13 30.53 1034 10 16 0.00 0.00
12:53 pm 12:53 Sunny 39 3.9 12 -11.1 32 32 SW 14 22 30.49 1033 10 16 0.00 0.00
1:53 pm 13:53 Sunny 39 3.9 10 -12.2 30 30 SW 15 24 30.46 1031 10 16 0.00 0.00
2:53 pm 14:53 Sunny 38 3.3 12 -11.1 34 34 SSW 12 19 30.44 1031 10 16 0.00 0.00
3:53 pm 15:53 Sunny 38 3.3 13 -10.6 35 35 SSW 13 20 30.41 1030 10 16 0.00 0.00
4:53 pm 16:53 Sunny 33 0.6 13 -10.6 43 43 S 8 13 30.40 1030 10 16 0.00 0.00
6:53 pm 18:53 Clear 28 -2.2 11 -11.7 48 48 S 7 11 30.40 1029 10 16 0.00 0.00
7:53 pm 19:53 Clear 27 -2.8 12 -11.1 53 53 S 6 9 30.40 1029 10 16 0.00 0.00
8:53 pm 20:53 Clear 26 -3.3 12 -11.1 55 55 S 8 13 30.38 1029 10 16 0.00 0.00
9:53 pm 21:53 Clear 26 -3.3 12 -11.1 55 55 S 8 13 30.36 1028 10 16 0.00 0.00
10:53 pm 22:53 Clear 27 -2.8 12 -11.1 53 53 S 10 17 30.31 1027 10 16 0.00 0.00
11:53 pm 23:53 Clear 28 -2.2 11 -11.7 48 48 SSW 10 17 30.28 1026 10 16 0.00 0.00

Powered by AerisWeather